User: anonymous   Login
Location: Unspecified
(0.0000°N, 0.0000°E)
Time: 10:15:19
(UTC+00:00)
Language:

COSMOS 2483 - Orbit

View from above orbital plane
View from above orbital plane
View from above satellite
View from above satellite

Ground track
Ground track

The orbit data is extracted from the following two-line orbital elements,

1 39058U 13001B   17080.88952214 +.00000042 +00000-0 +22797-3 0  9991
2 39058 082.5034 157.7317 0016337 183.8609 176.2350 12.43944445189748
Epoch (UTC): 21 March 2017 21:20:54
Eccentricity: 0.0016337
inclination: 82.5034°
perigee height: 1477 km
apogee height: 1503 km
right ascension of ascending node: 157.7317°
argument of perigee: 183.8609°
revolutions per day: 12.43944445
mean anomaly at epoch: 176.2350°
orbit number at epoch: 18974

The dashed part of the orbit path shows where the satellite is in the earth's shadow,  

DLR